This demonstration page uses our WeatherBlox Daily Observations layout. Learn more.

Left ArrowRight Arrow

Hourly Observations for December 12, 2016

Temp ( °F °C ) Dew Point ( °F °C ) Humidity (%) Winds ( mph kmh ) Pressure ( in mb ) Visibility ( mi km ) Precip ( " mm )
12:51 am 00:51 Clear 44 6.7 33 0.6 65 65 ESE 3 6 30.01 1016 10 16 N/A
1:51 am 01:51 Clear 42 5.6 33 0.6 71 71 SSE 6 9 30.01 1016 10 16 N/A
2:51 am 02:51 Clear 41 5 32 undefined 70 70 SE 6 9 30.00 1016 10 16 N/A
3:51 am 03:51 Clear 40 4.4 32 undefined 73 73 SSE 6 9 29.99 1016 10 16 N/A
4:51 am 04:51 Clear 40 4.4 32 undefined 73 73 SE 6 9 30.00 1016 10 16 N/A
5:51 am 05:51 Clear 37 2.8 31 -0.6 79 79 E 3 6 30.01 1016 10 16 N/A
6:51 am 06:51 Clear 41 5 33 0.6 73 73 N N/A 30.03 1017 10 16 N/A
7:51 am 07:51 Sunny 39 3.9 32 undefined 76 76 N N/A 30.07 1018 10 16 N/A
8:51 am 08:51 Sunny 46 7.8 34 1.1 63 63 SE 5 7 30.08 1019 10 16 N/A
9:51 am 09:51 Sunny 53 11.7 36 2.2 52 52 SE 5 7 30.06 1018 10 16 N/A
10:51 am 10:51 Sunny 60 15.6 37 2.8 42 42 SE 7 11 30.05 1018 10 16 N/A
11:51 am 11:51 Sunny 63 17.2 37 2.8 38 38 VRB 5 7 30.01 1016 10 16 N/A
12:51 pm 12:51 Sunny 66 18.9 37 2.8 34 34 WNW 3 6 29.97 1015 10 16 N/A
1:51 pm 13:51 Sunny 67 19.4 37 2.8 33 33 W 9 15 29.95 1014 10 16 N/A
2:51 pm 14:51 Sunny 68 20 38 3.3 33 33 VRB 7 11 29.93 1013 10 16 N/A
3:51 pm 15:51 Sunny 68 20 37 2.8 32 32 WSW 8 13 29.93 1013 10 16 N/A
4:51 pm 16:51 Sunny 67 19.4 37 2.8 33 33 W 9 15 29.93 1014 10 16 N/A
5:51 pm 17:51 Clear 62 16.7 36 2.2 38 38 WNW 7 11 29.96 1015 10 16 N/A
6:51 pm 18:51 Clear 58 14.4 36 2.2 44 44 NNW 9 15 29.96 1015 10 16 N/A
7:51 pm 19:51 Clear 58 14.4 36 2.2 44 44 N N/A 29.98 1015 10 16 N/A
8:51 pm 20:51 Clear 56 13.3 36 2.2 47 47 SW 3 6 30.00 1016 10 16 N/A
9:51 pm 21:51 Clear 53 11.7 36 2.2 52 52 SE 5 7 30.01 1016 10 16 N/A
10:51 pm 22:51 Clear 49 9.4 35 1.7 59 59 ESE 3 6 30.01 1016 10 16 N/A
11:51 pm 23:51 Clear 47 8.3 34 1.1 61 61 N N/A 30.01 1016 10 16 N/A

Powered by AerisWeather